Location: Antioch Church
(34.9543°N, 88.5145°W)
Time: 03:06:48
(UTC+00:00)

Abrixas rocket - Pass Details

Date: 11 December 2019
Orbit: 354 x 364 km, 48.4° (Epoch: 20 January)

Event Time Altitude Azimuth Distance (km) Brightness Sun altitude
Rises 00:05:28 0° 220° (SW) 2,178 6.9 -16.5°
Reaches altitude 10° 00:07:32 10° 214° (SSW) 1,333 5.5 -16.9°
Maximum altitude 00:10:25 46° 139° (SE) 489 2.3 -17.5°
Enters shadow 00:10:26 46° 138° (SE) 489 2.3 -17.5°
